Ketchikan, AK

7:25 AM AKST on November 15, 2018 (GMT -0900)
Ketchikan International

Weather History for PAKT - March, 2018

Change the Weather History Date:

Friday, March 23, 2018

  Actual Average Record
Temperature  
Mean Temperature 38 °F 39 °F  
Max Temperature 42 °F 45 °F 54 °F (1954)
Min Temperature 34 °F 33 °F 19 °F (1964)
Degree Days  
Heating Degree Days 27 26  
Month to date heating degree days 586 639  
Moisture  
Dew Point 35 °F    
Average Humidity 92    
Maximum Humidity 97    
Minimum Humidity 76    
Precipitation  
Precipitation 0.41 in 0.35 in 2.11 in (1966)
Month to date precipitation 5.01 8.14  
Year to date precipitation 25.44 34.07  
Sea Level Pressure  
Sea Level Pressure 29.72 in    
Wind  
Wind Speed 3 mph (NE)    
Max Wind Speed 9 mph    
Max Gust Speed 12 mph    
Visibility 9 miles    
Events Rain , Snow    
T = Trace of Precipitation, MM = Missing Value Source: NWS Daily Summary

Daily Weather History Graph

Daily Weather History Graph

Search for Another Location

Airport or City:

Astronomy

Mar. 23, 2018 Rise Set
Actual Time 6:40 AM AKDT 7:06 PM AKDT
Civil Twilight 6:04 AM AKDT 7:43 PM AKDT
Nautical Twilight 5:20 AM AKDT 8:27 PM AKDT
Astronomical Twilight 4:33 AM AKDT 9:14 PM AKDT
Moon 10:07 AM AKDT (3/23) 1:40 AM AKDT (3/23)
Length of Visible Light 13h 39m
Length of Day
12h 26m
Waxing Crescent, 41% of the Moon is Illuminated
Mar 23
Waxing Crescent
Mar 24
First Quarter
Mar 31
Full
Apr 7
Last Quarter
Apr 15
New

Hourly Weather History & Observations

Time (AKDT) Temp. Windchill Dew Point Humidity Pressure Visibility Wind Dir Wind Speed Gust Speed Precip Events Conditions
12:08 AM 37.9 °F 35.5 °F 36.0 °F 93% 29.63 in 10.0 mi South 3.5 mph - N/A   Overcast
12:46 AM 37.9 °F - 36.0 °F 93% 29.64 in 10.0 mi Calm Calm - 0.00 in   Overcast
12:53 AM 37.9 °F - 36.0 °F 93% 29.65 in 10.0 mi Calm Calm - 0.00 in   Overcast
1:36 AM 37.9 °F - 36.0 °F 93% 29.66 in 10.0 mi Calm Calm - N/A   Overcast
1:44 AM 37.9 °F 35.5 °F 36.0 °F 93% 29.66 in 10.0 mi SE 3.5 mph - 0.00 in Rain Light Rain
1:53 AM 37.9 °F - 36.0 °F 93% 29.67 in 9.0 mi Calm Calm - 0.01 in Rain Light Rain
2:08 AM 37.9 °F 35.5 °F 36.0 °F 93% 29.67 in 10.0 mi ESE 3.5 mph - 0.00 in Rain Light Rain
2:19 AM 37.9 °F - 36.0 °F 93% 29.67 in 10.0 mi Calm Calm - 0.00 in Rain Light Rain
2:53 AM 37.9 °F - 36.0 °F 93% 29.68 in 10.0 mi Calm Calm - 0.00 in Rain Light Rain
3:04 AM 37.9 °F 33.5 °F 36.0 °F 93% 29.68 in 9.0 mi SSE 5.8 mph - 0.01 in Rain Light Rain
3:20 AM 36.0 °F 33.3 °F 34.0 °F 93% 29.69 in 7.0 mi Variable 3.5 mph - 0.04 in Rain Light Rain
3:53 AM 36.0 °F 33.3 °F 34.0 °F 93% 29.70 in 8.0 mi ESE 3.5 mph - 0.07 in Rain Light Rain
4:05 AM 36.0 °F 31.1 °F 34.0 °F 93% 29.70 in 8.0 mi ESE 5.8 mph - 0.01 in Snow Light Snow
4:16 AM 36.0 °F 32.1 °F 34.0 °F 93% 29.70 in 7.0 mi East 4.6 mph - 0.02 in Rain Light Rain
4:26 AM 36.0 °F 33.3 °F 34.0 °F 93% 29.70 in 9.0 mi East 3.5 mph - 0.02 in Rain Light Rain
4:51 AM 35.6 °F - 33.8 °F 93% 29.70 in 10.0 mi Calm Calm - 0.02 in Rain Light Rain
4:53 AM 35.1 °F - 34.0 °F 96% 29.71 in 10.0 mi Calm Calm - 0.02 in Rain Light Rain
5:53 AM 35.1 °F - 34.0 °F 96% 29.72 in 10.0 mi Calm Calm - 0.01 in   Overcast
6:08 AM 35.6 °F - 33.8 °F 93% 29.72 in 10.0 mi Calm Calm - N/A   Overcast
6:53 AM 35.1 °F - 34.0 °F 96% 29.73 in 10.0 mi Calm Calm - 0.01 in Rain Light Rain
7:53 AM 36.0 °F - 35.1 °F 97% 29.73 in 9.0 mi Calm Calm - 0.00 in   Overcast
8:53 AM 37.0 °F - 35.1 °F 93% 29.74 in 8.0 mi Calm Calm - 0.01 in   Overcast
9:09 AM 37.0 °F - 35.1 °F 93% 29.74 in 9.0 mi Calm Calm - N/A   Overcast
9:53 AM 37.9 °F - 35.1 °F 89% 29.75 in 5.0 mi Calm Calm - 0.00 in Rain Light Rain
10:53 AM 37.9 °F 34.4 °F 36.0 °F 93% 29.75 in 10.0 mi ESE 4.6 mph - 0.01 in   Overcast
11:53 AM 39.9 °F 36.7 °F 36.0 °F 86% 29.75 in 10.0 mi ESE 4.6 mph - N/A   Overcast
12:53 PM 41.0 °F 38.0 °F 35.1 °F 79% 29.75 in 10.0 mi ESE 4.6 mph - 0.00 in Rain Light Rain
1:53 PM 41.0 °F 35.8 °F 35.6 °F 81% 29.75 in 10.0 mi NW 8.1 mph - N/A   Overcast
2:53 PM 41.0 °F 37.1 °F 35.6 °F 81% 29.75 in 10.0 mi NNW 5.8 mph - N/A   Overcast
3:53 PM 41.0 °F 38.0 °F 33.8 °F 76% 29.75 in 10.0 mi NW 4.6 mph - N/A   Overcast
4:53 PM 39.2 °F - 35.6 °F 87% 29.75 in 10.0 mi Calm Calm - N/A Rain Light Rain
5:53 PM 39.0 °F 32.3 °F 36.0 °F 89% 29.75 in 10.0 mi NNW 10.4 mph - 0.02 in Rain Light Rain
6:53 PM 37.4 °F 34.9 °F 35.6 °F 93% 29.76 in 10.0 mi WNW 3.5 mph - N/A Rain Light Rain
7:53 PM 36.0 °F 32.1 °F 35.1 °F 97% 29.75 in 7.0 mi NW 4.6 mph - 0.04 in Rain Light Rain
8:53 PM 34.0 °F 31.0 °F 33.1 °F 96% 29.76 in 4.0 mi WNW 3.5 mph - 0.04 in Snow Light Snow
9:42 PM 35.1 °F 32.2 °F 34.0 °F 96% 29.74 in 10.0 mi NW 3.5 mph - 0.02 in Rain Light Rain
9:53 PM 35.1 °F - 34.0 °F 96% 29.75 in 10.0 mi Calm Calm - 0.02 in Rain Light Rain
10:29 PM 35.1 °F 32.2 °F 34.0 °F 96% 29.74 in 10.0 mi WNW 3.5 mph - 0.00 in Rain Light Rain
10:53 PM 35.1 °F 32.2 °F 34.0 °F 96% 29.74 in 10.0 mi WNW 3.5 mph - 0.01 in Rain Light Rain
11:13 PM 35.1 °F - 34.0 °F 96% 29.74 in 10.0 mi Calm Calm - 0.00 in Rain Light Rain
11:53 PM 35.1 °F - 34.0 °F 96% 29.74 in 8.0 mi Calm Calm - 0.01 in Snow Light Snow